Simultaneous Nadir Overpasses (SNOs) Predictions

Prediction of SNOs between AQUA and NPP Satellite Orbit:

Table of predicted SNOs for the next 14.0 days since TLE Epoch: 7/12/2014
Index Date (AQUA) Time (AQUA) Lat,Lon (AQUA) SZA (AQUA ) Date (NPP) Time (NPP) Lat,Lon (NPP) SZA (NPP ) Distance(km) Time Diff (sec)
1 07/14/2014 01:32:41 51.15, 11.02 101.82 07/14/2014 01:31:58 51.15, 11.01 101.87 0.18 43
2 07/14/2014 02:19:48 -59.47,-176.94 86.40 07/14/2014 02:20:19 -59.47,-176.96 86.43 1.17 31
3 07/16/2014 17:47:56 55.37, 128.93 98.09 07/16/2014 17:47:44 55.37, 128.95 98.09 1.47 12
4 07/16/2014 18:35:35 -61.76, -59.48 88.27 07/16/2014 18:36:38 -61.76, -59.50 88.33 1.38 63
5 07/19/2014 09:17:02 -48.09, 73.86 74.33 07/19/2014 09:16:09 -48.08, 73.86 74.26 0.04 53
6 07/19/2014 10:03:28 58.53,-113.39 95.42 07/19/2014 10:03:48 58.54,-113.36 95.37 1.95 20
7 07/22/2014 01:32:15 -52.36,-168.42 78.02 07/22/2014 01:31:54 -52.36,-168.42 78.00 0.18 21
8 07/22/2014 02:19:14 60.83, 4.00 93.62 07/22/2014 02:20:07 60.83, 4.02 93.55 0.95 53
9 07/24/2014 17:00:56 46.06, 137.25 108.64 07/24/2014 16:59:55 46.03, 137.26 108.74 3.11 61
10 07/24/2014 17:47:43 -55.65, -50.90 80.72 07/24/2014 17:47:55 -55.64, -50.91 80.73 0.65 12




NCC Satellite Simultaneous Nadir Overpasses (SNOs) Prediction Service
